TimeCST,TemperatureF,Dew PointF,Humidity,Sea Level PressureIn,VisibilityMPH,Wind Direction,Wind SpeedMPH,Gust SpeedMPH,PrecipitationIn,Events,Conditions,WindDirDegrees,DateUTC
12:53 AM,44.1,19.0,37,30.05,10.0,SSE,4.6,-,N/A,,Clear,160,2012-12-13 06:53:00
1:53 AM,44.1,19.0,37,30.04,10.0,South,8.1,-,N/A,,Clear,180,2012-12-13 07:53:00
2:53 AM,43.0,19.9,40,30.04,10.0,SSE,6.9,-,N/A,,Clear,150,2012-12-13 08:53:00
3:53 AM,42.1,19.9,41,30.02,10.0,SSE,8.1,-,N/A,,Clear,150,2012-12-13 09:53:00
4:53 AM,42.1,19.9,41,30.02,10.0,SSE,8.1,-,N/A,,Clear,160,2012-12-13 10:53:00
5:53 AM,39.9,19.9,45,30.03,10.0,SSE,6.9,-,N/A,,Clear,160,2012-12-13 11:53:00
6:53 AM,39.9,19.9,45,30.05,10.0,South,8.1,-,N/A,,Clear,170,2012-12-13 12:53:00
7:53 AM,41.0,21.9,47,30.07,10.0,SSE,8.1,-,N/A,,Clear,160,2012-12-13 13:53:00
8:53 AM,45.0,21.9,40,30.06,10.0,SSE,6.9,-,N/A,,Clear,160,2012-12-13 14:53:00
9:53 AM,53.1,21.9,30,30.06,10.0,SE,11.5,-,N/A,,Clear,140,2012-12-13 15:53:00
10:53 AM,59.0,21.9,24,30.06,10.0,SE,18.4,24.2,N/A,,Clear,140,2012-12-13 16:53:00
11:53 AM,63.0,24.1,23,30.03,10.0,SE,17.3,26.5,N/A,,Clear,140,2012-12-13 17:53:00
12:53 PM,66.0,25.0,21,29.99,10.0,SSE,19.6,26.5,N/A,,Clear,160,2012-12-13 18:53:00
1:53 PM,66.0,26.1,22,29.96,10.0,SSE,18.4,-,N/A,,Clear,150,2012-12-13 19:53:00
2:53 PM,66.9,27.0,22,29.94,10.0,SE,16.1,-,N/A,,Clear,130,2012-12-13 20:53:00
3:53 PM,66.9,27.0,22,29.92,10.0,SE,19.6,-,N/A,,Clear,140,2012-12-13 21:53:00
7:53 PM,53.1,37.9,57,29.97,10.0,SSE,17.3,-,N/A,,Clear,150,2012-12-14 01:53:00
8:53 PM,51.1,41.0,68,29.99,10.0,SSE,17.3,-,N/A,,Clear,150,2012-12-14 02:53:00
9:53 PM,51.1,44.1,77,29.98,10.0,SSE,21.9,28.8,N/A,,Clear,160,2012-12-14 03:53:00
10:53 PM,50.0,44.1,80,29.97,10.0,SSE,17.3,25.3,N/A,,Clear,150,2012-12-14 04:53:00